NWS Melbourne » East Central Florida Hourly Weather Roundup

MIARWRMLB 000
TTAA00 KMLB 251011
HOURLY WEATHER ROUNDUP AROUND FLORIDA
NATIONAL WEATHER SERVICE OFFICE MELBOURNE FL
500 AM EST SUN JAN 25 2015
  
CITY           SKY/WX    TMP DP  RH WIND       PRES   REMARKS
MELBOURNE      CLEAR     45  42  89 NW9       30.03S                  
FORT PIERCE    CLEAR     41  40  96 NW5       30.04R WCI  38          
ORLANDO INTL   PTCLDY    43  41  93 CALM      30.06R                  
DAYTONA BEACH  CLEAR     42  40  92 CALM      30.05R                  
VERO BEACH     CLEAR     42  40  92 W5        30.04R WCI  39          
$$
...ELSEWHERE ACROSS CENTRAL FLORIDA...
  
CITY           SKY/WX    TMP DP  RH WIND       PRES   REMARKS
PATRICK AFB    CLEAR     49  43  79 NW16      30.03S                  
JFK SPACE CTR  CLEAR     42  41  94 NW5       30.03S WCI  40          
CAPE CANAVERAL CLEAR     47  43  85 NW9       30.03S                  
ORLANDO EXEC   CLEAR     45  39  79 NW5       30.05S                  
LEESBURG       CLEAR     45  36  70 NW7       30.06R                  
SANFORD        CLEAR     42  40  92 CALM      30.05S                  
WINTER HAVEN   CLEAR     46  42  86 NW5       30.06S                  
OKEECHOBEE     CLEAR     41  41 100 CALM      30.06R                  
TAMPA          PTCLDY    48  44  86 CALM      30.06R                  
$$
...NORTHERN FLORIDA...
  
CITY           SKY/WX    TMP DP  RH WIND       PRES   REMARKS
DELAND         CLEAR    N/A N/A N/A CALM      30.05S                  
ST AUGUSTINE   CLEAR     41  36  82 W5        30.05R WCI  38          
OCALA          CLEAR     37  32  81 N6        30.04S WCI  33          
GAINESVILLE    CLEAR     36  34  92 W3        30.05R                  
JACKSONVILLE   PTCLDY    38  36  92 NW5       30.03R WCI  34          
TALLAHASSEE    CLEAR     32  27  81 CALM      30.06F                  
$$
...ALONG THE SOUTHEAST COAST TO THE KEYS...
  
CITY           SKY/WX    TMP DP  RH WIND       PRES   REMARKS
STUART         CLEAR     45  43  93 W7        30.05S                  
WEST PALM BCH  CLEAR     49  45  86 NW10      30.02R                  
MIAMI          CLEAR     54  47  77 NW6       30.04R                  
KEY WEST       MOCLDY    65  53  65 NW7       30.03F                  
$$
...MARINE REPORTS...
  
STATION/POSITION TIME  TEMP    WIND        PRES    WAVE   SWELL
                       AIR SEA DIR/SP/G            HT/PER HT/PER/DIR
                 (UTC) (F)     (DEG/KT/KT) (MB)    (FT/S) (FT/S/D)
ST AUGUSTINE FP  1000   42     290/  4/  6 1017.6R
20NM E CAPE CANA 1000   56 71  310/ 16/ 19 1016.3R   4/ 6   2/ 40/ 9
120 E NEW SMYRNA 1000   64 77  310/ 14/ 19 1014.6R   7/ 8   7/320/ 8
TRIDENT PIER     1000   49 65  300/  9/ 14 1016.5R
SEBASTIAN INLET  1000   49     320/ 12     1017.0S
4NM E PORT CANAV 1000      64                N/A     1/ 7
6NM NE FPR INLET 1000      73                N/A     4/ 5
SETTLEMENT PT GB 1000   64     360/ 10/ 11 1016.1S
$$
  
 


USA.gov is the U.S. government's official web portal to all federal, state and local government web resources and services.